CW4591 Weather Reports


Display with metric or nautical units.
time (UTC)temp
F
wind
direction
speed
MPH
gust
MPH
rain 1hr
in
rain 24hr
in
rain mn
in
humidity
%
barometer
mb
20260503171536 39 37 0.0 2.0 0.00 0.00 0.00 63 1018.8
20260503081528 38 226 6.0 10.0 0.00 0.00 0.00 54 1016.1
20260503071521 36 143 1.0 4.0 0.00 0.00 0.00 62 1015.6
20260503054518 41 228 0.0 5.0 0.00 0.00 0.00 53 1014.8
20260503053017 42 235 2.0 7.0 0.00 0.00 0.00 51 1014.6
20260503051510 42 202 3.0 11.0 0.00 0.00 0.00 50 1014.3
20260503050009 43 222 3.0 9.0 0.00 0.00 0.00 50 1014.3
20260503044507 43 245 4.0 13.0 0.00 0.00 0.00 50 1013.9
20260503043006 44 251 5.0 14.0 0.00 0.00 0.00 49 1013.8
20260503041504 44 254 4.0 11.0 0.00 0.00 0.00 48 1013.6
20260503040010 45 199 5.0 15.0 0.00 0.00 0.00 48 1013.3
20260503034503 45 295 5.0 13.0 0.00 0.00 0.00 47 1013.4
20260503033002 45 241 7.0 15.0 0.00 0.00 0.00 47 1013.3
20260503031600 46 239 5.0 12.0 0.00 0.00 0.00 46 1013.0
20260503030108 45 227 7.0 15.0 0.00 0.00 0.00 47 1012.7
20260503024602 46 276 7.0 16.0 0.00 0.00 0.00 45 1012.6
20260503023058 47 312 8.0 17.0 0.00 0.00 0.00 43 1012.7
20260503021604 47 270 5.0 14.0 0.00 0.00 0.00 44 1012.7
20260503020106 46 359 8.0 21.0 0.00 0.00 0.00 46 1012.4
20260503014555 46 359 12.0 21.0 0.00 0.00 0.00 44 1012.4
20260503013056 47 226 10.0 19.0 0.00 0.00 0.00 44 1012.3
20260503011603 46 226 9.0 21.0 0.00 0.00 0.00 45 1012.1
20260503010055 47 359 12.0 22.0 0.00 0.00 0.00 42 1012.0
20260503004551 47 270 9.0 19.0 0.00 0.00 0.00 40 1011.9
20260503003055 48 262 7.0 15.0 0.00 0.00 0.00 37 1011.5
20260503001556 48 300 7.0 12.0 0.00 0.00 0.00 36 1011.5
20260503000038 48 191 6.0 22.0 0.00 0.00 0.00 36 1011.1
20260502234546 50 247 9.0 18.0 0.00 0.00 0.00 33 1011.0
20260502233035 51 251 8.0 21.0 0.00 0.00 0.00 34 1010.8
20260502231532 50 359 11.0 25.0 0.00 0.00 0.00 35 1010.8
20260502230030 50 219 9.0 23.0 0.00 0.00 0.00 36 1010.5
20260502224529 50 242 10.0 29.0 0.00 0.00 0.00 38 1010.4
20260502223029 50 212 9.0 23.0 0.00 0.00 0.00 36 1010.2
20260502221527 49 262 10.0 22.0 0.00 0.00 0.00 38 1010.5
20260502220032 49 239 11.0 25.0 0.00 0.00 0.00 40 1010.4
20260502214527 49 226 9.0 23.0 0.00 0.00 0.00 41 1010.5
20260502213033 49 286 9.0 16.0 0.00 0.00 0.00 42 1010.5
20260502211525 49 280 7.0 20.0 0.00 0.00 0.00 42 1010.6
20260502210024 49 166 8.0 17.0 0.00 0.00 0.00 41 1010.4
20260502204522 49 183 8.0 18.0 0.00 0.00 0.00 39 1010.1
20260502203020 49 359 4.0 13.0 0.00 0.00 0.00 40 1010.0
20260502201531 49 359 6.0 14.0 0.00 0.00 0.00 39 1009.8
20260502200018 50 251 10.0 19.0 0.00 0.00 0.00 38 1009.6
20260502194532 50 268 8.0 19.0 0.00 0.00 0.00 39 1009.3
20260502193015 50 268 7.0 16.0 0.00 0.00 0.00 39 1009.0
20260502191511 49 265 6.0 12.0 0.00 0.00 0.00 39 1008.7
20260502190010 49 218 7.0 15.0 0.00 0.00 0.00 39 1008.4
20260502184515 49 359 8.0 17.0 0.00 0.00 0.00 41 1008.3
20260502183010 49 231 9.0 21.0 0.00 0.00 0.00 40 1008.2
20260502181504 48 265 6.0 15.0 0.00 0.00 0.00 40 1008.1